Weather History for KRME - April, 2013

Change the Weather History Date:

Tuesday, April 9, 2013

  Actual Average Record
Temperature  
Mean Temperature 49 °F -  
Max Temperature 55 °F 53 °F 73 °F (1991)
Min Temperature 44 °F 31 °F 18 °F (1982)
Degree Days  
Heating Degree Days 16    
Moisture  
Dew Point 42 °F    
Average Humidity 82    
Maximum Humidity 100    
Minimum Humidity 57    
Precipitation  
Precipitation 0.21 in - - ()
Sea Level Pressure  
Sea Level Pressure 30.00 in    
Wind  
Wind Speed 11 mph (NW)    
Max Wind Speed 18 mph    
Max Gust Speed 30 mph    
Visibility 8 miles    
Events Rain    
Averages and records for this station are not official NWS values.
T = Trace of Precipitation, MM = Missing Value Source: NWS Daily Summary

Daily Weather History Graph

Daily Weather History Graph

Search for Another Location

Airport or City:

Trip Planner

Search our weather history database for the weather conditions in past years. The results will help you decide how hot, cold, wet, or windy it might be!

Date:

Astronomy

Apr. 09, 2013 Rise Set
Actual Time 6:29 AM EDT 7:37 PM EDT
Civil Twilight 6:00 AM EDT 8:07 PM EDT
Nautical Twilight 5:25 AM EDT 8:42 PM EDT
Astronomical Twilight 4:48 AM EDT 9:19 PM EDT
Moon 5:51 AM EDT (4/9) 7:11 PM EDT (4/9)
Length of Visible Light 14h 07m
Length of Day
13h 08m
Waning Crescent, 1% of the Moon is Illuminated
Apr 9
Waning Crescent
Apr 10
New
Apr 18
First Quarter
Apr 25
Full
May 2
Last Quarter

Hourly Weather History & Observations

Time (EDT) Temp. Windchill Dew Point Humidity Pressure Visibility Wind Dir Wind Speed Gust Speed Precip Events Conditions
12:53 AM 51.1 °F - 39.9 °F 66% 29.84 in 10.0 mi SE 12.7 mph - N/A   Overcast
1:53 AM 51.1 °F - 41.0 °F 68% 29.83 in 10.0 mi ESE 6.9 mph - N/A   Mostly Cloudy
2:53 AM 51.1 °F - 42.1 °F 71% 29.78 in 10.0 mi East 10.4 mph - N/A   Scattered Clouds
3:53 AM 46.9 °F - 43.0 °F 86% 29.82 in 10.0 mi NW 4.6 mph - N/A   Mostly Cloudy
4:53 AM 53.1 °F - 45.0 °F 74% 29.84 in 10.0 mi West 12.7 mph - N/A   Mostly Cloudy
5:53 AM 54.0 °F - 46.0 °F 75% 29.87 in 10.0 mi West 13.8 mph 26.5 mph N/A   Overcast
6:21 AM 50.0 °F - 46.0 °F 86% 29.91 in 10.0 mi WNW 18.4 mph - N/A   Overcast
6:50 AM 48.2 °F - 44.6 °F 87% 29.95 in 9.0 mi WNW 16.1 mph 27.6 mph N/A   Overcast
6:53 AM 48.0 °F - 44.1 °F 86% 29.96 in 8.0 mi WNW 15.0 mph - N/A   Overcast
7:53 AM 46.9 °F - 44.1 °F 90% 29.99 in 7.0 mi WNW 13.8 mph 29.9 mph 0.00 in   Overcast
8:51 AM 44.6 °F 37.8 °F 44.6 °F 100% 30.02 in 2.5 mi WNW 15.0 mph - 0.00 in   Overcast
8:53 AM 45.0 °F 38.2 °F 44.1 °F 97% 30.03 in 2.5 mi WNW 15.0 mph - 0.00 in   Overcast
9:00 AM 45.0 °F 38.9 °F 44.1 °F 97% 30.02 in 2.5 mi WNW 12.7 mph - N/A   Overcast
9:06 AM 45.0 °F 38.2 °F 43.0 °F 93% 30.02 in 3.0 mi WNW 15.0 mph - N/A   Overcast
9:13 AM 45.0 °F 37.9 °F 43.0 °F 93% 30.03 in 3.0 mi NW 16.1 mph - N/A   Overcast
9:22 AM 44.1 °F 36.8 °F 43.0 °F 96% 30.04 in 2.5 mi WNW 16.1 mph - 0.00 in Rain Light Rain
9:29 AM 44.1 °F 37.1 °F 42.1 °F 93% 30.04 in 4.0 mi WNW 15.0 mph - 0.00 in Rain Light Rain
9:53 AM 44.1 °F 37.4 °F 42.1 °F 93% 30.06 in 10.0 mi WNW 13.8 mph - 0.00 in   Overcast
10:53 AM 44.1 °F 37.4 °F 41.0 °F 89% 30.08 in 10.0 mi NW 13.8 mph - N/A   Overcast
11:53 AM 45.0 °F 38.9 °F 39.9 °F 82% 30.10 in 10.0 mi WNW 12.7 mph - N/A   Overcast
12:36 PM 46.0 °F 41.0 °F 39.9 °F 79% 30.11 in 10.0 mi WNW 10.4 mph - N/A   Overcast
12:53 PM 45.0 °F 40.1 °F 39.9 °F 82% 30.12 in 10.0 mi West 9.2 mph - N/A   Overcast
1:18 PM 46.0 °F 41.4 °F 39.9 °F 79% 30.11 in 10.0 mi West 9.2 mph - N/A   Overcast
1:28 PM 46.0 °F 41.4 °F 39.9 °F 79% 30.11 in 10.0 mi West 9.2 mph - N/A   Overcast
1:53 PM 48.0 °F - 41.0 °F 77% 30.10 in 10.0 mi NNW 9.2 mph - N/A   Overcast
2:53 PM 48.9 °F - 39.9 °F 71% 30.08 in 10.0 mi NW 4.6 mph - N/A   Overcast
3:38 PM 51.1 °F - 39.9 °F 66% 30.06 in 10.0 mi North 4.6 mph - N/A   Scattered Clouds
3:53 PM 51.1 °F - 39.9 °F 66% 30.05 in 10.0 mi Calm Calm - N/A   Partly Cloudy
4:53 PM 53.1 °F - 39.9 °F 61% 30.05 in 10.0 mi South 4.6 mph - N/A   Clear
5:53 PM 54.0 °F - 39.0 °F 57% 30.02 in 10.0 mi Calm Calm - N/A   Clear
6:53 PM 52.0 °F - 39.9 °F 63% 30.04 in 10.0 mi North 5.8 mph - N/A   Clear
7:53 PM 51.1 °F - 41.0 °F 68% 30.01 in 10.0 mi ENE 3.5 mph - 0.00 in Rain Light Rain
8:53 PM 48.0 °F - 46.0 °F 93% 30.02 in 10.0 mi East 3.5 mph - 0.02 in Rain Light Rain
9:53 PM 48.0 °F - 44.1 °F 86% 30.00 in 10.0 mi Calm Calm - 0.00 in Rain Light Rain
10:53 PM 46.9 °F - 44.1 °F 90% 29.97 in 5.0 mi East 3.5 mph - 0.04 in Rain Heavy Rain
11:46 PM 46.0 °F - 45.0 °F 96% 30.00 in 2.5 mi Calm Calm - 0.13 in Rain Heavy Rain
11:53 PM 46.0 °F 43.9 °F 45.0 °F 96% 29.98 in 3.0 mi East 4.6 mph - 0.15 in Rain Heavy Rain